Wind_Speed
37 33 32 30 29 32 35 29 26 22 23 18 12 9 8 10 13 14 10 11 11 7 2 4 4 4 5 5 5 6 7 9 10 9 8 9 10 10 10 11 12 12 12 13 14 14 15 16 16
39 35 33 31 31 30 34 33 29 27 28 28 21 18 19 18 19 19 17 17 11 10 13 10 8 8 9 9 8 7 7 7 8 9 10 10 11 11 13 13 13 14 15 15 16 16 16 16 17
40 38 36 33 30 26 29 36 34 32 32 31 24 24 22 23 23 23 19 19 19 16 18 20 17 12 11 11 12 12 11 11 11 11 12 12 12 13 13 13 13 14 14 15 16 17 17 18 19
43 40 37 34 29 28 30 36 38 37 38 38 29 25 25 25 29 25 22 20 21 21 20 20 20 18 16 14 14 14 14 13 13 14 13 14 15 15 14 15 15 15 16 17 18 19 19 19 19
47 43 38 34 29 29 32 35 39 41 40 38 35 28 24 25 28 31 29 25 21 24 24 24 24 23 21 20 19 16 16 16 15 15 15 14 14 15 16 17 17 18 18 19 19 19 19 21 21
49 45 41 34 30 34 30 32 37 42 42 41 38 32 31 26 26 31 30 25 23 24 23 25 27 27 26 24 23 23 22 21 20 18 17 17 16 16 17 18 18 18 19 20 20 19 19 20 21
49 48 43 39 38 35 31 32 37 41 43 44 42 41 36 30 28 28 29 32 29 29 26 26 27 26 26 25 25 24 23 23 23 23 21 19 18 19 19 19 20 20 20 20 20 19 19 19 21
47 50 48 43 41 33 34 36 35 39 42 47 46 43 43 40 35 28 21 23 26 28 26 29 29 30 30 30 29 28 27 26 26 25 24 24 24 24 23 22 21 21 21 22 23 23 24 23 22
37 51 48 45 39 36 37 37 37 39 44 45 48 46 42 41 38 31 25 21 25 28 28 31 33 33 34 35 34 29 26 26 26 27 27 29 29 28 27 27 25 27 26 26 26 27 25 26 26
43 39 42 42 37 36 38 42 42 42 42 46 46 47 46 42 41 39 34 34 34 33 35 34 34 35 33 33 33 32 29 30 28 28 29 31 31 31 31 31 31 31 32 30 29 32 32 31 29
42 35 34 41 45 49 50 50 46 44 43 43 43 44 40 39 38 35 34 36 36 36 31 32 31 29 31 31 32 31 31 32 32 32 33 33 32 33 33 35 33 34 34 33 34 34 35 34 33
39 37 40 37 39 44 45 36 39 40 39 40 37 37 39 42 41 43 42 41 37 32 34 34 36 33 34 35 35 35 32 37 36 37 36 33 34 34 34 37 38 38 39 40 39 42 41 36 34
45 42 44 41 41 41 43 45 43 44 44 47 45 45 46 44 44 45 45 46 45 43 36 38 37 37 37 36 37 35 37 33 36 32 34 34 36 35 37 39 42 42 45 44 45 46 40 36 35
44 42 45 46 46 47 49 46 47 46 48 48 47 47 46 45 45 46 48 49 48 47 43 40 40 40 37 37 38 36 37 38 38 40 39 36 37 38 39 42 42 45 45 47 48 46 42 41 41
43 42 43 44 45 46 47 48 48 44 45 47 47 48 46 45 45 45 46 48 50 47 49 47 46 45 40 38 35 35 37 36 36 36 41 39 38 40 43 47 45 48 50 47 47 45 42 41 41
40 39 37 37 40 40 42 39 40 42 42 40 42 46 47 47 47 47 48 49 50 50 50 48 45 44 43 42 37 37 35 35 35 40 40 40 40 45 43 42 43 48 48 47 47 45 41 38 41
38 37 35 32 32 37 42 45 41 42 47 49 50 48 50 50 48 47 48 48 47 46 46 45 45 41 41 39 39 36 34 34 35 38 39 42 43 44 45 45 45 49 49 48 50 48 44 44 43
31 32 32 26 34 40 44 47 46 48 51 47 48 49 51 49 47 45 43 44 42 43 44 43 42 41 41 42 40 37 38 40 41 41 43 43 43 41 43 45 50 52 49 49 49 50 48 49 47
32 33 34 28 35 40 42 46 46 47 49 48 45 48 48 46 41 38 37 38 38 40 42 42 43 42 44 44 42 39 40 42 42 41 42 44 44 45 45 46 49 57 54 50 52 51 49 49 48
32 34 34 29 36 42 41 43 44 44 46 45 44 45 45 42 34 38 40 41 40 41 43 44 45 47 47 45 42 42 43 44 47 47 48 46 47 47 48 49 50 53 48 47 52 54 49 49 46
33 35 34 32 34 39 40 40 38 38 40 43 42 41 40 34 38 39 40 43 45 44 45 47 48 49 48 45 39 35 39 40 42 42 44 47 47 47 47 47 49 52 51 48 49 60 52 42 42
33 33 34 34 35 38 41 39 36 38 41 42 41 39 35 36 38 40 41 45 46 47 47 48 49 47 43 37 34 35 37 42 46 44 43 44 45 46 47 49 50 51 52 53 53 48 48 44 44
34 34 36 38 39 38 39 41 37 38 40 41 42 41 41 44 41 39 36 36 38 39 40 40 39 40 38 37 36 36 37 41 44 46 48 50 50 51 51 53 54 55 56 56 57 52 48 46 47
35 34 36 37 37 39 38 39 41 40 39 41 46 46 47 46 39 36 35 39 41 43 42 42 42 41 38 33 32 33 36 38 39 43 48 52 53 54 55 55 55 57 58 59 58 56 53 50 50
34 35 36 38 38 38 35 35 37 36 29 36 38 41 44 46 42 37 36 41 44 44 43 41 41 40 39 38 39 37 39 42 45 47 47 48 53 56 58 59 61 60 60 60 60 57 54 53 55
32 34 36 39 39 38 37 39 34 37 34 36 39 40 41 43 42 39 38 40 42 44 44 44 44 45 48 48 48 48 47 47 49 48 48 51 52 54 57 58 60 64 64 64 63 63 59 56 56
36 37 39 40 43 43 42 39 38 35 38 38 39 46 45 45 45 43 41 43 45 46 47 47 49 50 53 55 55 54 54 54 54 58 58 55 57 60 61 62 62 61 63 66 67 67 67 65 63
36 38 39 41 42 41 39 33 25 27 32 36 36 35 36 38 42 41 40 43 46 46 50 53 53 56 55 53 56 58 60 60 62 65 65 61 62 64 69 69 69 68 68 67 69 71 71 70 70
20 23 24 26 29 31 30 28 28 30 30 32 32 33 33 36 33 38 42 42 38 45 53 59 62 63 62 64 60 57 59 63 66 69 65 64 68 75 75 74 73 72 73 74 74 74 75 75 74
21 24 27 28 29 31 34 35 37 36 34 35 36 38 39 39 46 47 51 51 55 47 47 48 50 56 57 59 60 65 65 66 65 65 67 69 72 74 74 74 73 74 74 74 74 76 77 77 77
Wind_Direction
218 218 208 199 196 187 175 183 189 205 215 226 250 238 215 251 256 267 264 274 322 247 241 328 346 332 338 344 336 331 341 338 334 329 334 335 335 334 334 337 339 339 336 336 337 338 338 337 337
220 217 213 203 197 187 185 199 196 204 227 220 227 220 211 220 240 250 259 264 276 277 286 299 300 297 304 308 306 308 307 314 314 321 315 314 313 318 325 329 330 330 330 332 333 335 338 337 335
216 217 214 207 199 192 199 205 202 207 220 232 228 227 221 218 225 240 240 249 259 263 273 282 288 283 290 296 300 301 302 308 310 306 307 313 316 315 316 320 323 326 328 330 331 332 333 333 332
212 216 215 207 199 199 206 208 208 213 221 225 226 229 227 229 232 237 245 251 254 262 271 276 286 289 287 285 282 286 292 294 297 298 302 306 309 309 310 311 313 316 318 319 319 319 321 321 320
211 214 214 208 203 206 210 209 212 217 226 231 234 229 239 229 242 246 249 257 258 267 273 276 280 283 284 284 281 280 281 282 285 286 287 291 295 293 294 297 300 303 305 304 305 309 313 314 314
213 212 211 208 209 212 210 216 214 221 228 232 241 236 238 239 244 244 239 245 269 264 273 277 278 279 281 281 280 280 283 283 280 279 282 281 281 286 291 293 295 296 296 296 296 298 302 306 310
212 213 208 204 214 215 213 215 220 224 229 236 231 240 243 243 242 249 248 252 257 257 271 267 266 270 271 274 277 280 282 282 279 279 275 275 277 276 281 282 284 287 289 289 289 289 296 302 306
217 214 208 204 214 215 219 220 222 227 234 238 239 240 245 251 251 255 254 256 255 258 258 258 264 266 268 272 275 276 279 280 281 283 280 275 274 274 274 277 276 283 285 286 287 291 294 294 302
218 216 209 208 208 216 224 223 227 228 232 239 243 247 250 254 255 253 254 254 267 275 278 279 277 274 276 281 279 277 279 280 279 278 276 275 272 273 274 273 272 272 274 272 275 282 289 293 291
222 216 213 210 207 213 216 225 228 230 230 238 243 247 252 254 253 258 256 254 259 265 269 278 279 275 279 280 279 275 276 271 272 276 278 275 273 272 275 272 270 270 273 275 279 280 283 284 278
229 214 216 207 210 211 211 219 221 228 233 236 246 251 262 268 268 269 269 264 261 262 267 273 264 262 266 264 264 266 269 265 266 268 273 272 274 277 276 276 273 273 270 268 272 274 282 284 281
243 238 240 237 235 226 222 221 229 236 243 247 255 260 265 274 280 284 286 283 278 265 268 273 270 266 266 267 264 267 265 262 267 261 266 267 268 271 276 275 273 271 269 271 274 280 284 284 281
233 234 239 239 247 248 242 236 234 240 247 252 260 267 269 270 273 274 279 278 276 275 266 266 269 268 266 267 264 265 264 255 260 265 263 269 262 264 266 271 275 272 273 274 276 282 281 279 275
232 231 232 235 239 239 244 245 248 245 244 251 256 260 263 266 268 271 273 274 276 278 278 275 273 267 268 265 266 263 266 264 260 267 262 269 264 264 265 266 270 269 273 276 274 273 274 274 274
229 229 231 233 237 241 244 246 248 251 254 255 259 262 262 260 258 259 262 267 269 272 275 278 277 277 276 270 270 269 265 266 266 260 263 258 265 266 263 261 265 268 273 273 273 272 272 273 272
232 233 235 233 236 241 244 247 249 249 250 251 249 249 251 254 256 259 260 263 266 269 271 272 271 272 272 273 270 267 266 265 263 266 258 267 265 260 259 265 267 271 271 274 274 271 272 274 272
234 235 235 237 238 240 240 240 240 242 240 236 239 244 250 252 254 257 259 260 260 261 263 265 265 266 265 267 269 267 265 266 265 264 261 261 265 260 262 261 268 272 271 273 273 275 272 268 269
238 237 233 229 234 232 236 239 240 241 246 244 242 242 243 247 250 251 251 255 260 261 260 259 260 261 264 264 264 267 268 266 262 263 265 267 268 263 268 264 267 268 268 268 271 271 270 268 270
234 237 233 227 237 236 235 240 242 241 243 243 246 248 245 246 248 247 246 250 250 254 256 257 260 263 263 265 268 270 268 268 269 268 266 265 267 269 267 270 272 268 261 260 263 266 266 268 272
237 240 241 229 235 240 238 238 243 245 245 247 245 248 252 252 252 248 247 246 247 248 251 254 257 260 263 268 273 273 273 273 271 269 269 266 264 263 264 263 266 273 270 271 265 259 254 261 265
238 242 243 240 238 253 254 251 253 258 258 257 255 254 259 260 253 254 253 253 251 251 255 258 259 261 263 267 269 267 262 262 264 265 263 265 265 266 266 267 267 270 273 272 267 260 266 265 271
248 250 252 252 250 252 259 262 261 261 265 268 272 271 265 260 260 264 264 260 261 263 261 261 262 264 265 261 258 259 262 265 267 268 268 268 269 268 268 268 268 269 271 273 270 277 283 271 272
246 246 248 246 248 250 252 258 259 255 257 264 268 269 270 269 270 269 272 268 266 267 269 269 267 264 262 261 262 262 262 264 272 276 275 272 269 268 268 269 270 270 271 273 274 275 272 272 271
251 249 252 256 259 259 259 262 265 262 261 258 261 267 270 272 267 266 267 268 269 270 269 268 267 266 264 261 261 263 266 267 272 271 269 270 272 273 273 270 267 268 269 269 271 273 274 274 273
252 256 258 257 257 261 262 263 265 271 262 260 261 262 263 265 268 270 267 266 265 265 267 269 272 275 276 273 268 267 265 266 273 277 276 270 266 268 270 273 274 272 271 271 271 269 269 269 268
250 252 256 260 263 265 265 264 266 268 264 262 261 261 262 264 264 264 265 264 262 263 267 268 270 274 277 278 278 277 277 273 274 280 281 275 273 271 267 266 270 273 273 274 274 274 272 268 265
248 251 255 260 262 264 263 264 266 264 268 266 262 261 258 261 261 258 261 260 259 261 262 261 264 269 274 276 277 278 279 280 281 283 288 284 281 278 276 272 268 268 271 273 273 274 274 274 271
254 257 255 260 265 269 275 279 269 258 254 258 261 261 262 265 267 270 268 263 261 264 268 266 270 274 277 279 281 280 280 278 278 282 282 277 282 284 284 281 278 277 274 271 271 271 271 272 272
245 256 259 261 264 273 279 278 275 271 269 270 271 268 263 263 262 273 276 274 270 270 265 266 269 274 273 277 272 272 275 272 274 277 278 279 279 280 280 279 277 275 273 273 273 271 270 270 269
262 267 270 269 272 275 278 277 281 280 279 276 272 272 268 262 258 258 259 261 262 263 264 273 278 267 265 266 270 270 272 274 275 277 278 277 278 278 277 275 273 273 272 271 269 269 269 268 266
Height
5867 5872 5875 5880 5886 5887 5890 5892 5892 5893 5893 5893 5895 5893 5898 5899 5902 5906 5907 5909 5910 5911 5911 5911 5912 5912 5911 5911 5911 5912 5912 5913 5914 5914 5914 5914 5914 5914 5913 5912 5912 5911 5910 5909 5908 5906 5905 5904 5903
5863 5868 5872 5876 5880 5884 5889 5889 5889 5891 5890 5887 5891 5893 5895 5897 5900 5902 5905 5907 5909 5911 5911 5912 5912 5911 5911 5911 5911 5911 5911 5911 5912 5913 5913 5913 5913 5913 5912 5912 5912 5911 5910 5909 5908 5907 5906 5905 5904
5860 5864 5868 5872 5877 5882 5884 5885 5886 5887 5887 5885 5888 5891 5895 5896 5898 5901 5903 5905 5907 5909 5909 5910 5910 5910 5911 5911 5911 5911 5911 5911 5911 5911 5912 5912 5912 5911 5911 5911 5910 5910 5909 5909 5909 5908 5906 5905 5903
5855 5861 5866 5869 5875 5878 5877 5880 5883 5884 5883 5881 5886 5890 5895 5895 5897 5900 5902 5903 5905 5906 5907 5907 5908 5909 5909 5910 5910 5910 5910 5911 5911 5911 5911 5911 5911 5911 5911 5910 5909 5909 5908 5908 5907 5906 5904 5902 5900
5848 5856 5861 5867 5872 5872 5872 5876 5880 5882 5883 5882 5884 5888 5890 5895 5896 5898 5901 5903 5904 5904 5905 5905 5906 5906 5907 5907 5908 5909 5909 5909 5909 5909 5909 5909 5909 5909 5908 5908 5907 5907 5906 5905 5904 5903 5901 5900 5899
5844 5850 5857 5865 5869 5865 5869 5871 5875 5875 5877 5879 5880 5885 5887 5891 5895 5896 5899 5902 5902 5902 5902 5902 5903 5903 5904 5905 5905 5906 5907 5907 5907 5907 5907 5907 5907 5907 5906 5905 5905 5904 5903 5902 5902 5901 5899 5898 5897
5839 5845 5852 5857 5861 5862 5865 5867 5869 5871 5873 5873 5877 5878 5884 5887 5892 5895 5898 5899 5899 5899 5898 5899 5899 5899 5900 5901 5901 5902 5903 5904 5905 5905 5904 5904 5904 5903 5903 5902 5901 5900 5899 5899 5898 5897 5896 5896 5895
5835 5839 5846 5851 5854 5863 5861 5863 5865 5868 5869 5870 5873 5877 5880 5883 5886 5890 5894 5895 5895 5896 5895 5895 5896 5896 5896 5897 5898 5899 5900 5901 5901 5901 5901 5901 5900 5899 5899 5898 5898 5897 5896 5896 5895 5894 5894 5893 5892
5829 5834 5843 5847 5849 5855 5856 5859 5861 5863 5865 5866 5869 5873 5877 5879 5882 5888 5890 5892 5891 5890 5889 5890 5891 5891 5892 5893 5894 5894 5895 5896 5896 5896 5896 5896 5895 5895 5895 5894 5893 5893 5891 5891 5890 5890 5890 5891 5890
5822 5831 5842 5843 5846 5848 5848 5849 5854 5856 5860 5862 5863 5863 5868 5875 5878 5882 5887 5888 5888 5887 5886 5887 5886 5886 5887 5888 5889 5888 5889 5889 5890 5890 5890 5889 5889 5889 5890 5889 5888 5888 5887 5887 5886 5885 5885 5884 5883
5820 5829 5832 5832 5834 5834 5835 5842 5845 5849 5853 5857 5859 5861 5862 5865 5868 5871 5875 5877 5880 5881 5881 5880 5879 5881 5883 5884 5884 5884 5884 5883 5883 5883 5883 5883 5884 5884 5883 5883 5884 5883 5882 5881 5881 5880 5879 5878 5877
5813 5820 5822 5828 5831 5836 5839 5843 5845 5848 5851 5852 5854 5856 5858 5853 5856 5856 5857 5861 5868 5873 5875 5874 5872 5872 5874 5876 5877 5877 5877 5877 5877 5876 5877 5877 5877 5877 5877 5878 5876 5876 5876 5875 5874 5874 5872 5871 5871
5807 5813 5818 5823 5824 5828 5831 5835 5840 5843 5847 5848 5850 5850 5853 5855 5854 5853 5852 5852 5855 5858 5864 5867 5867 5867 5867 5868 5868 5869 5869 5868 5868 5869 5870 5869 5869 5869 5869 5869 5869 5869 5868 5866 5866 5866 5865 5864 5862
5800 5806 5810 5814 5816 5819 5822 5827 5828 5836 5839 5842 5845 5847 5847 5846 5847 5846 5845 5845 5846 5847 5850 5852 5855 5860 5859 5859 5861 5862 5861 5861 5861 5861 5861 5861 5861 5861 5861 5860 5859 5860 5859 5858 5858 5857 5857 5856 5854
5793 5799 5803 5808 5811 5813 5816 5820 5824 5832 5833 5835 5837 5837 5838 5838 5839 5841 5841 5839 5838 5840 5841 5843 5845 5846 5849 5850 5850 5851 5852 5852 5853 5853 5853 5852 5853 5853 5851 5851 5851 5851 5850 5848 5848 5848 5848 5847 5846
5789 5796 5800 5804 5806 5808 5812 5819 5821 5823 5825 5827 5828 5827 5828 5830 5831 5832 5833 5834 5834 5834 5835 5835 5838 5838 5839 5840 5842 5844 5844 5845 5845 5844 5843 5843 5841 5841 5841 5841 5843 5842 5839 5839 5841 5840 5839 5839 5838
5783 5789 5793 5799 5802 5803 5804 5807 5813 5812 5811 5814 5815 5819 5820 5821 5823 5826 5827 5827 5827 5828 5828 5827 5828 5829 5830 5832 5832 5834 5836 5836 5836 5836 5835 5833 5832 5832 5833 5832 5833 5832 5833 5831 5831 5830 5831 5829 5829
5780 5783 5786 5791 5790 5792 5795 5796 5800 5801 5802 5807 5811 5812 5810 5812 5815 5818 5817 5818 5819 5818 5818 5818 5819 5821 5821 5821 5823 5826 5827 5828 5828 5827 5824 5823 5824 5824 5825 5823 5822 5821 5822 5821 5820 5821 5820 5819 5821
5771 5774 5777 5784 5782 5784 5787 5788 5792 5793 5794 5798 5800 5800 5800 5801 5804 5809 5811 5810 5810 5811 5811 5812 5812 5812 5812 5813 5815 5818 5818 5817 5817 5817 5817 5816 5815 5813 5814 5812 5809 5808 5807 5807 5807 5808 5809 5809 5811
5767 5768 5772 5778 5776 5776 5780 5783 5783 5787 5788 5790 5793 5794 5796 5798 5801 5800 5801 5802 5803 5804 5804 5804 5804 5803 5804 5806 5809 5810 5807 5805 5804 5804 5803 5804 5803 5803 5803 5802 5800 5796 5799 5796 5794 5794 5793 5795 5798
5761 5762 5767 5772 5774 5772 5774 5777 5781 5783 5785 5784 5786 5788 5791 5793 5789 5789 5793 5794 5794 5795 5795 5795 5796 5797 5798 5800 5800 5798 5797 5795 5792 5792 5792 5791 5791 5790 5790 5790 5788 5786 5784 5784 5785 5778 5781 5785 5786
5755 5759 5761 5763 5767 5768 5767 5770 5775 5777 5775 5777 5779 5779 5781 5782 5782 5783 5784 5785 5786 5787 5786 5785 5786 5788 5789 5789 5789 5788 5787 5784 5781 5781 5782 5781 5780 5780 5780 5780 5780 5778 5777 5776 5776 5775 5779 5778 5779
5749 5750 5752 5754 5756 5759 5761 5760 5766 5768 5769 5769 5768 5768 5769 5770 5772 5773 5774 5775 5775 5775 5777 5778 5778 5778 5779 5779 5779 5779 5778 5775 5772 5771 5771 5770 5769 5770 5771 5770 5769 5768 5766 5766 5765 5768 5771 5768 5767
5741 5745 5746 5748 5750 5752 5754 5756 5757 5759 5761 5761 5759 5759 5759 5759 5760 5762 5763 5764 5764 5765 5766 5767 5767 5767 5767 5768 5768 5769 5768 5766 5765 5762 5760 5760 5759 5757 5756 5756 5757 5757 5756 5753 5753 5754 5755 5755 5754
5734 5736 5739 5741 5741 5743 5746 5747 5747 5747 5750 5749 5750 5751 5749 5749 5750 5753 5754 5754 5754 5754 5754 5754 5754 5755 5755 5757 5758 5758 5758 5755 5751 5749 5749 5748 5747 5745 5744 5741 5740 5741 5741 5741 5742 5743 5743 5744 5742
5727 5730 5732 5731 5732 5735 5736 5735 5740 5737 5739 5739 5738 5738 5738 5738 5739 5741 5743 5744 5744 5744 5743 5743 5744 5744 5744 5744 5743 5742 5742 5742 5741 5738 5736 5735 5733 5731 5730 5728 5727 5725 5724 5725 5724 5725 5728 5731 5730
5721 5722 5723 5724 5723 5724 5727 5729 5729 5728 5726 5726 5726 5725 5726 5725 5726 5729 5731 5731 5731 5731 5731 5731 5732 5731 5731 5730 5729 5728 5726 5724 5723 5721 5721 5720 5717 5714 5712 5712 5712 5713 5712 5710 5710 5710 5710 5711 5713
5712 5714 5714 5713 5713 5713 5713 5715 5718 5718 5717 5715 5714 5715 5715 5715 5714 5714 5716 5717 5718 5719 5719 5718 5717 5717 5718 5719 5717 5714 5712 5710 5709 5707 5705 5703 5702 5701 5700 5697 5695 5695 5696 5696 5695 5694 5695 5695 5696
5706 5705 5706 5708 5707 5705 5706 5708 5709 5709 5710 5709 5708 5708 5707 5706 5704 5702 5704 5704 5705 5705 5706 5707 5706 5707 5707 5703 5703 5699 5697 5693 5692 5690 5690 5689 5687 5686 5682 5679 5678 5678 5678 5677 5677 5677 5676 5676 5678
5700 5700 5699 5699 5701 5699 5699 5700 5698 5699 5701 5701 5699 5698 5698 5698 5696 5696 5694 5696 5694 5694 5693 5693 5693 5691 5689 5687 5683 5682 5680 5679 5678 5677 5674 5672 5671 5668 5663 5660 5658 5656 5656 5656 5656 5657 5657 5658 5658